DW3735 Weather Reports


time (UTC)temp
C
wind
direction
speed
KPH
gust
KPH
rain 1hr
cm
rain 24hr
cm
rain mn
cm
humidity
%
barometer
mb
20260504042016 10 248 3.2 6.4 0.00 0.00 0.00 50 1003.9
20260504041016 10 248 1.6 3.2 0.00 0.00 0.00 49 1003.9
20260504040015 10 0.0 3.2 0.00 0.00 0.00 50 1004.0
20260504035016 10 0.0 3.2 0.00 0.00 0.00 48 1004.0
20260504034016 10 248 1.6 3.2 0.00 0.00 0.00 47 1003.9
20260504033016 10 248 3.2 6.4 0.00 0.00 0.00 47 1004.1
20260504032016 10 225 3.2 6.4 0.00 0.00 0.00 47 1004.1
20260504031016 10 225 3.2 4.8 0.00 0.00 0.00 45 1004.2
20260504030016 10 225 3.2 9.7 0.00 0.00 0.00 45 1004.2
20260504025016 10 248 1.6 4.8 0.00 0.00 0.00 44 1004.3
20260504024016 10 248 1.6 3.2 0.00 0.00 0.00 42 1004.3
20260504023036 10 270 1.6 4.8 0.00 0.00 0.00 43 1004.3
20260504022016 10 0.0 3.2 0.00 0.00 0.00 43 1004.3
20260504021036 9 0.0 0.0 0.00 0.00 0.00 43 1004.3
20260504020016 9 0.0 0.0 0.00 0.00 0.00 42 1004.3
20260504015036 8 0.0 0.0 0.00 0.00 0.00 45 1004.3
20260504014016 8 0.0 0.0 0.00 0.00 0.00 45 1004.3
20260504013016 7 0.0 0.0 0.00 0.00 0.00 46 1004.2
20260504012016 8 0.0 0.0 0.00 0.00 0.00 47 1004.2
20260504011016 8 0.0 0.0 0.00 0.00 0.00 46 1004.1
20260504010016 8 0.0 0.0 0.00 0.00 0.00 49 1004.2
20260504005016 8 0.0 0.0 0.00 0.00 0.00 42 1004.1
20260504004036 9 0.0 0.0 0.00 0.00 0.00 42 1004.1
20260504003036 10 0.0 0.0 0.00 0.00 0.00 40 1004.1
20260504002015 10 0.0 0.0 0.00 0.00 0.00 38 1003.9
20260504001016 11 0.0 0.0 0.00 0.00 0.00 41 1004.0
20260504000016 11 0.0 0.0 0.00 0.00 0.00 30 1004.0
20260503235016 11 0.0 0.0 0.00 0.00 0.00 30 1004.0
20260503234016 12 0.0 0.0 0.00 0.00 0.00 32 1003.9
20260503233016 12 0.0 0.0 0.00 0.00 0.00 30 1004.0
20260503232016 12 0.0 0.0 0.00 0.00 0.00 28 1003.9
20260503231036 12 0.0 4.8 0.00 0.00 0.00 29 1004.0
20260503230036 12 0.0 0.0 0.00 0.00 0.00 25 1003.9
20260503225036 12 0.0 3.2 0.00 0.00 0.00 25 1004.1
20260503224016 12 248 1.6 3.2 0.00 0.00 0.00 28 1004.1
20260503223015 12 0.0 3.2 0.00 0.00 0.00 27 1004.1
20260503222016 13 0.0 3.2 0.00 0.00 0.00 27 1004.3
20260503221016 12 0.0 3.2 0.00 0.00 0.00 25 1004.3
20260503220016 13 248 3.2 6.4 0.00 0.00 0.00 25 1004.3
20260503215016 13 293 3.2 6.4 0.00 0.00 0.00 21 1004.2
20260503214036 13 135 1.6 6.4 0.00 0.00 0.00 22 1004.4
20260503213016 13 0.0 1.6 0.00 0.00 0.00 25 1004.5
20260503212016 13 0.0 3.2 0.00 0.00 0.00 24 1004.5
20260503211036 13 270 1.6 4.8 0.00 0.00 0.00 23 1004.6
20260503210016 13 293 3.2 6.4 0.00 0.00 0.00 25 1004.7
20260503205016 13 270 3.2 9.7 0.00 0.00 0.00 25 1004.8
20260503204016 12 225 1.6 4.8 0.00 0.00 0.00 27 1004.8
20260503203016 12 293 1.6 6.4 0.00 0.00 0.00 27 1005.0
20260503202016 12 225 1.6 9.7 0.00 0.00 0.00 30 1005.0
20260503201016 12 270 3.2 6.4 0.00 0.00 0.00 28 1005.1
20260503200016 12 293 3.2 6.4 0.00 0.00 0.00 27 1005.2
20260503195056 12 248 1.6 3.2 0.00 0.00 0.00 31 1005.5
20260503194016 12 90 1.6 4.8 0.00 0.00 0.00 33 1005.6
20260503193036 12 0.0 3.2 0.00 0.00 0.00 32 1005.7
20260503192016 12 225 1.6 6.4 0.00 0.00 0.00 29 1005.8
20260503191016 12 293 3.2 12.9 0.00 0.00 0.00 27 1005.9
20260503190015 12 0.0 3.2 0.00 0.00 0.00 33 1006.0
20260503185016 12 270 1.6 4.8 0.00 0.00 0.00 31 1006.1
20260503184016 12 270 3.2 9.7 0.00 0.00 0.00 29 1006.2
20260503183036 12 270 3.2 6.4 0.00 0.00 0.00 28 1006.3
20260503182016 12 270 3.2 11.3 0.00 0.00 0.00 28 1006.5
20260503181016 12 248 3.2 8.0 0.00 0.00 0.00 32 1006.6
20260503180016 12 225 3.2 9.7 0.00 0.00 0.00 30 1006.6
20260503175016 11 270 1.6 6.4 0.00 0.00 0.00 33 1006.8
20260503174016 11 225 3.2 11.3 0.00 0.00 0.00 32 1007.0
20260503173015 11 270 1.6 6.4 0.00 0.00 0.00 31 1007.1
20260503172016 11 180 1.6 6.4 0.00 0.00 0.00 32 1007.2
20260503171016 11 225 1.6 6.4 0.00 0.00 0.00 33 1007.3
20260503131016 6 0.0 0.0 0.00 0.00 0.00 55 1009.9
20260503081016 2 0.0 0.0 0.00 0.00 0.00 67 1010.6
20260503072036 2 0.0 0.0 0.00 0.00 0.00 67 1010.6
20260503071016 2 0.0 0.0 0.00 0.00 0.00 67 1010.6
20260503055016 3 0.0 0.0 0.00 0.00 0.00 66 1011.0
20260503054056 3 0.0 0.0 0.00 0.00 0.00 66 1011.0
20260503053016 3 0.0 0.0 0.00 0.00 0.00 66 1011.1
20260503052016 3 0.0 0.0 0.00 0.00 0.00 65 1011.1
20260503051015 3 0.0 0.0 0.00 0.00 0.00 66 1011.1
20260503050016 3 0.0 0.0 0.00 0.00 0.00 64 1011.2
20260503045016 3 0.0 0.0 0.00 0.00 0.00 63 1011.2
20260503044016 3 0.0 0.0 0.00 0.00 0.00 63 1011.3
20260503043015 3 0.0 0.0 0.00 0.00 0.00 62 1011.3